MTN7109 TAPA-TJSJ

Flight info

Callsign MTN7109
Flight time N/A
Altitude 20000
Route GABAR G633 COY DCT CHAKA DCT SNGRA DCT REKUA DCT SJU
Aircraft C208/L-SDFGR/C

Departure

Time 2026-04-26 20:08
Airport V. C. Bird International Airport (TAPA)

Arrival

Time N/A
Airport Luis Munoz Marin International Airport (TJSJ)
Time Latitude Longitude Altitude Speed Heading
2026-04-26 19:59 17.13846 -61.79368 49 ft 0 kts 337°
2026-04-26 20:05 17.13851 -61.79370 49 ft 3 kts 351°
2026-04-26 20:05 17.13878 -61.79321 48 ft 12 kts 84°
2026-04-26 20:06 17.13873 -61.79232 47 ft 13 kts 102°
2026-04-26 20:06 17.13869 -61.79142 45 ft 13 kts 71°
2026-04-26 20:06 17.13902 -61.79130 45 ft 5 kts 282°
2026-04-26 20:06 17.13879 -61.79142 45 ft 4 kts 145°
2026-04-26 20:07 17.13852 -61.79121 45 ft 6 kts 142°
2026-04-26 20:07 17.13815 -61.79093 45 ft 11 kts 154°
2026-04-26 20:07 17.13736 -61.79106 46 ft 17 kts 220°
2026-04-26 20:07 17.13631 -61.79320 50 ft 65 kts 237°
2026-04-26 20:08 17.13408 -61.79867 246 ft 86 kts 240°
2026-04-26 20:08 17.13351 -61.80466 594 ft 93 kts 285°
2026-04-26 20:08 17.13799 -61.80942 939 ft 95 kts 324°
2026-04-26 20:08 17.14304 -61.81356 1299 ft 94 kts 322°
2026-04-26 20:09 17.14822 -61.81798 1735 ft 100 kts 300°
2026-04-26 20:09 17.14885 -61.82437 2034 ft 90 kts 241°
2026-04-26 20:09 17.15040 -61.83105 2465 ft 99 kts 280°
2026-04-26 20:09 17.15121 -61.83692 2878 ft 90 kts 264°
2026-04-26 20:10 17.13846 -61.79368 49 ft 0 kts 337°
2026-04-26 20:15 17.13856 -61.79333 49 ft 15 kts 120°
2026-04-26 20:15 17.13859 -61.79211 47 ft 17 kts 74°
2026-04-26 20:15 17.13852 -61.79119 45 ft 9 kts 135°
2026-04-26 20:16 17.13805 -61.79091 45 ft 7 kts 174°
2026-04-26 20:16 17.13759 -61.79124 46 ft 13 kts 237°
2026-04-26 20:16 17.13602 -61.79390 51 ft 81 kts 242°
2026-04-26 20:16 17.13416 -61.80056 321 ft 100 kts 250°
2026-04-26 20:17 17.13273 -61.80699 843 ft 89 kts 251°
2026-04-26 20:17 17.13313 -61.81365 1250 ft 101 kts 283°
2026-04-26 20:17 17.13814 -61.81892 1662 ft 103 kts 315°
2026-04-26 20:17 17.14170 -61.82217 1932 ft 102 kts 317°
2026-04-26 20:18 17.14854 -61.82882 2450 ft 97 kts 304°
2026-04-26 20:18 17.15039 -61.83516 2801 ft 90 kts 264°
2026-04-26 20:18 17.15187 -61.84165 3253 ft 90 kts 268°
2026-04-26 20:18 17.15300 -61.84796 3697 ft 88 kts 268°
2026-04-26 20:19 17.15410 -61.85409 4128 ft 85 kts 266°
2026-04-26 20:19 17.15520 -61.86011 4522 ft 84 kts 266°
2026-04-26 20:19 17.15625 -61.86608 4893 ft 83 kts 267°
2026-04-26 20:19 17.15729 -61.87201 5255 ft 83 kts 268°
2026-04-26 20:20 17.15835 -61.87784 5630 ft 80 kts 265°
2026-04-26 20:20 17.15932 -61.88363 5938 ft 86 kts 266°
2026-04-26 20:20 17.16053 -61.89017 6215 ft 96 kts 269°
2026-04-26 20:20 17.16179 -61.89727 6484 ft 102 kts 270°
2026-04-26 20:21 17.16312 -61.90476 6730 ft 107 kts 270°
2026-04-26 20:21 17.16449 -61.91256 6979 ft 111 kts 271°
2026-04-26 20:21 17.16592 -61.92056 7224 ft 113 kts 272°
2026-04-26 20:21 17.16735 -61.92869 7466 ft 114 kts 272°
2026-04-26 20:22 17.16881 -61.93688 7699 ft 115 kts 272°
2026-04-26 20:22 17.17025 -61.94506 7933 ft 114 kts 272°
2026-04-26 20:22 17.17169 -61.95325 8180 ft 114 kts 272°
2026-04-26 20:22 17.17315 -61.96142 8422 ft 114 kts 272°
2026-04-26 20:23 17.17457 -61.96957 8667 ft 114 kts 274°
2026-04-26 20:23 17.17601 -61.97771 8913 ft 114 kts 272°
2026-04-26 20:23 17.17743 -61.98583 9162 ft 114 kts 273°
2026-04-26 20:23 17.17889 -61.99401 9414 ft 115 kts 274°
2026-04-26 20:24 17.18032 -62.00218 9661 ft 114 kts 275°
2026-04-26 20:24 17.18176 -62.01030 9910 ft 114 kts 274°
2026-04-26 20:24 17.18318 -62.01842 10147 ft 114 kts 275°
2026-04-26 20:24 17.18460 -62.02653 10371 ft 113 kts 275°
2026-04-26 20:25 17.18602 -62.03459 10602 ft 113 kts 275°
2026-04-26 20:25 17.18648 -62.03721 10679 ft 113 kts 277°
2026-04-26 20:25 17.18885 -62.05063 11066 ft 111 kts 276°
2026-04-26 20:25 17.19025 -62.05857 11300 ft 110 kts 276°
2026-04-26 20:26 17.19115 -62.06380 11462 ft 110 kts 275°
2026-04-26 20:26 17.19253 -62.07161 11698 ft 109 kts 277°
2026-04-26 20:26 17.19389 -62.07939 11936 ft 108 kts 276°
2026-04-26 20:26 17.19524 -62.08712 12179 ft 108 kts 277°
2026-04-26 20:27 17.19659 -62.09481 12418 ft 107 kts 278°
2026-04-26 20:27 17.19795 -62.10246 12667 ft 106 kts 278°
2026-04-26 20:27 17.19928 -62.11004 12912 ft 105 kts 278°
2026-04-26 20:27 17.20060 -62.11756 13162 ft 104 kts 278°
2026-04-26 20:28 17.20189 -62.12497 13412 ft 103 kts 278°
2026-04-26 20:28 17.20314 -62.13226 13660 ft 101 kts 279°
2026-04-26 20:28 17.20441 -62.13946 13898 ft 100 kts 279°
2026-04-26 20:28 17.20570 -62.14655 14120 ft 98 kts 278°
2026-04-26 20:29 17.20687 -62.15351 14344 ft 96 kts 277°
2026-04-26 20:29 17.20807 -62.16033 14570 ft 95 kts 278°
2026-04-26 20:29 17.20929 -62.16705 14797 ft 93 kts 277°
2026-04-26 20:29 17.21042 -62.17368 15019 ft 92 kts 277°
2026-04-26 20:30 17.21154 -62.18018 15249 ft 90 kts 277°
2026-04-26 20:30 17.21267 -62.18654 15478 ft 88 kts 277°
2026-04-26 20:30 17.21375 -62.19278 15708 ft 86 kts 276°
2026-04-26 20:30 17.21478 -62.19887 15938 ft 84 kts 276°
2026-04-26 20:31 17.21584 -62.20483 16171 ft 82 kts 276°
2026-04-26 20:31 17.21688 -62.21063 16402 ft 80 kts 276°
2026-04-26 20:31 17.21784 -62.21626 16635 ft 77 kts 275°
2026-04-26 20:31 17.21877 -62.22168 16867 ft 74 kts 275°
2026-04-26 20:32 17.21969 -62.22690 17077 ft 74 kts 275°
2026-04-26 20:32 17.22074 -62.23302 17158 ft 89 kts 277°
2026-04-26 20:32 17.22188 -62.23930 17408 ft 86 kts 275°
2026-04-26 20:32 17.22295 -62.24539 17650 ft 84 kts 275°
2026-04-26 20:33 17.22396 -62.25129 17889 ft 81 kts 274°
2026-04-26 20:33 17.22496 -62.25705 18083 ft 82 kts 275°
2026-04-26 20:33 17.22604 -62.26305 18251 ft 86 kts 275°
2026-04-26 20:33 17.22712 -62.26921 18407 ft 89 kts 275°
2026-04-26 20:34 17.22826 -62.27565 18557 ft 92 kts 275°
2026-04-26 20:34 17.22942 -62.28231 18707 ft 95 kts 276°
2026-04-26 20:34 17.23061 -62.28917 18864 ft 97 kts 275°
2026-04-26 20:34 17.23185 -62.29623 19009 ft 100 kts 275°
2026-04-26 20:35 17.23312 -62.30346 19157 ft 102 kts 275°
2026-04-26 20:35 17.23440 -62.31084 19301 ft 104 kts 275°
2026-04-26 20:35 17.23571 -62.31837 19443 ft 106 kts 275°
2026-04-26 20:35 17.23705 -62.32600 19592 ft 107 kts 275°
2026-04-26 20:36 17.23839 -62.33370 19733 ft 108 kts 275°
2026-04-26 20:36 17.23974 -62.34146 19874 ft 109 kts 275°
2026-04-26 20:36 17.24110 -62.34929 19995 ft 112 kts 275°
2026-04-26 20:36 17.24258 -62.35769 20012 ft 122 kts 276°
2026-04-26 20:37 17.24417 -62.36677 20009 ft 131 kts 276°
2026-04-26 20:37 17.24585 -62.37637 20007 ft 137 kts 276°
2026-04-26 20:37 17.24759 -62.38632 20007 ft 141 kts 276°
2026-04-26 20:37 17.24937 -62.39653 20007 ft 144 kts 276°
2026-04-26 20:38 17.25118 -62.40689 20005 ft 146 kts 276°
2026-04-26 20:38 17.25300 -62.41735 20004 ft 147 kts 276°
2026-04-26 20:38 17.25483 -62.42787 20004 ft 147 kts 276°
2026-04-26 20:38 17.25667 -62.43844 20005 ft 148 kts 276°
2026-04-26 20:39 17.25851 -62.44905 20005 ft 148 kts 276°
2026-04-26 20:39 17.26035 -62.45966 20004 ft 149 kts 276°
2026-04-26 20:39 17.26220 -62.47031 20004 ft 149 kts 276°
2026-04-26 20:39 17.26405 -62.48095 20005 ft 149 kts 276°
2026-04-26 20:40 17.26590 -62.49161 20004 ft 149 kts 276°
2026-04-26 20:40 17.26775 -62.50226 20004 ft 149 kts 276°
2026-04-26 20:40 17.26959 -62.51292 20003 ft 149 kts 276°
2026-04-26 20:40 17.27144 -62.52358 20003 ft 149 kts 276°
2026-04-26 20:41 17.27329 -62.53424 20003 ft 149 kts 276°
2026-04-26 20:41 17.27514 -62.54492 20003 ft 149 kts 276°
2026-04-26 20:41 17.27698 -62.55560 20005 ft 149 kts 276°
2026-04-26 20:41 17.27884 -62.56628 20003 ft 149 kts 276°
2026-04-26 20:42 17.28068 -62.57695 20004 ft 149 kts 276°
2026-04-26 20:42 17.28253 -62.58764 20004 ft 149 kts 276°
2026-04-26 20:42 17.28437 -62.59832 20005 ft 149 kts 276°
2026-04-26 20:42 17.28622 -62.60900 20004 ft 149 kts 276°
2026-04-26 20:43 17.28807 -62.61968 20001 ft 149 kts 276°
2026-04-26 20:43 17.28991 -62.63035 20003 ft 149 kts 276°
2026-04-26 20:43 17.29176 -62.64105 20003 ft 149 kts 276°
2026-04-26 20:43 17.29360 -62.65173 20004 ft 149 kts 276°
2026-04-26 20:44 17.29545 -62.66240 19999 ft 149 kts 276°
2026-04-26 20:44 17.29728 -62.67306 20001 ft 149 kts 276°
2026-04-26 20:44 17.29912 -62.68375 20003 ft 149 kts 276°
2026-04-26 20:44 17.30097 -62.69445 20002 ft 149 kts 276°
2026-04-26 20:45 17.30281 -62.70516 20002 ft 150 kts 276°
2026-04-26 20:45 17.30466 -62.71588 20004 ft 150 kts 276°
2026-04-26 20:45 17.30652 -62.72660 20001 ft 150 kts 276°
2026-04-26 20:45 17.30836 -62.73732 20003 ft 150 kts 276°
2026-04-26 20:46 17.31019 -62.74801 20000 ft 149 kts 276°
2026-04-26 20:46 17.31203 -62.75868 20002 ft 149 kts 276°
2026-04-26 20:46 17.31387 -62.76939 20000 ft 149 kts 276°
2026-04-26 20:46 17.31572 -62.78008 20001 ft 150 kts 276°
2026-04-26 20:47 17.31756 -62.79085 20002 ft 151 kts 276°
2026-04-26 20:47 17.31879 -62.79799 20006 ft 151 kts 276°
2026-04-26 20:47 17.32128 -62.81245 20002 ft 151 kts 276°
2026-04-26 20:47 17.32312 -62.82322 20004 ft 150 kts 276°
2026-04-26 20:48 17.32497 -62.83398 20001 ft 150 kts 276°
2026-04-26 20:48 17.32682 -62.84472 20001 ft 150 kts 276°
2026-04-26 20:48 17.32865 -62.85544 20000 ft 150 kts 276°
2026-04-26 20:48 17.33049 -62.86617 20001 ft 150 kts 276°
2026-04-26 20:49 17.33233 -62.87688 20000 ft 150 kts 276°
2026-04-26 20:49 17.33416 -62.88759 20001 ft 150 kts 276°
2026-04-26 20:49 17.33600 -62.89829 20001 ft 149 kts 276°
2026-04-26 20:49 17.33783 -62.90901 20000 ft 149 kts 276°
2026-04-26 20:50 17.33966 -62.91972 20000 ft 149 kts 276°
2026-04-26 20:50 17.34150 -62.93042 20001 ft 149 kts 276°
2026-04-26 20:50 17.34333 -62.94113 20000 ft 149 kts 276°
2026-04-26 20:50 17.34516 -62.95182 20000 ft 150 kts 276°
2026-04-26 20:51 17.34699 -62.96255 20000 ft 150 kts 276°
2026-04-26 20:51 17.34882 -62.97326 19998 ft 150 kts 276°
2026-04-26 20:51 17.35065 -62.98397 19999 ft 150 kts 276°
2026-04-26 20:51 17.35249 -62.99470 19999 ft 150 kts 276°
2026-04-26 20:52 17.35459 -63.00536 20000 ft 150 kts 279°
2026-04-26 20:52 17.35707 -63.01598 19999 ft 150 kts 279°
2026-04-26 20:52 17.35949 -63.02660 19999 ft 150 kts 279°
2026-04-26 20:52 17.36191 -63.03722 20001 ft 150 kts 279°
2026-04-26 20:53 17.36434 -63.04786 20000 ft 150 kts 279°
2026-04-26 20:53 17.36677 -63.05849 19999 ft 150 kts 279°
2026-04-26 20:53 17.36920 -63.06912 20000 ft 150 kts 279°
2026-04-26 20:53 17.37163 -63.07977 20001 ft 150 kts 279°
2026-04-26 20:54 17.37406 -63.09039 19999 ft 150 kts 279°
2026-04-26 20:54 17.37648 -63.10104 20000 ft 150 kts 279°
2026-04-26 20:54 17.37891 -63.11169 19999 ft 150 kts 279°
2026-04-26 20:54 17.38134 -63.12231 20001 ft 150 kts 279°
2026-04-26 20:55 17.38376 -63.13294 20001 ft 150 kts 279°
2026-04-26 20:55 17.38618 -63.14354 19999 ft 150 kts 279°
2026-04-26 20:55 17.38860 -63.15417 20000 ft 150 kts 279°
2026-04-26 20:55 17.39102 -63.16477 19999 ft 150 kts 279°
2026-04-26 20:56 17.39344 -63.17540 19998 ft 150 kts 279°
2026-04-26 20:56 17.39586 -63.18600 19999 ft 150 kts 279°
2026-04-26 20:56 17.39828 -63.19663 19997 ft 150 kts 279°
2026-04-26 20:56 17.40070 -63.20725 19998 ft 150 kts 279°
2026-04-26 20:57 17.40311 -63.21786 19999 ft 150 kts 279°
2026-04-26 20:57 17.40553 -63.22850 19999 ft 150 kts 279°
2026-04-26 20:57 17.40795 -63.23910 20000 ft 150 kts 279°
2026-04-26 20:57 17.41036 -63.24972 19998 ft 150 kts 279°
2026-04-26 20:58 17.41278 -63.26033 20000 ft 150 kts 279°
2026-04-26 20:58 17.41518 -63.27094 20000 ft 150 kts 279°
2026-04-26 20:58 17.41760 -63.28155 20002 ft 150 kts 279°
2026-04-26 20:58 17.41997 -63.29201 20000 ft 150 kts 279°
2026-04-26 20:59 17.42238 -63.30264 19999 ft 150 kts 279°
2026-04-26 20:59 17.42479 -63.31324 20000 ft 150 kts 279°
2026-04-26 20:59 17.42721 -63.32386 19998 ft 150 kts 279°
2026-04-26 20:59 17.42961 -63.33447 19999 ft 150 kts 279°
2026-04-26 21:00 17.43202 -63.34509 19998 ft 150 kts 279°
2026-04-26 21:00 17.43443 -63.35569 19998 ft 150 kts 279°
2026-04-26 21:00 17.43684 -63.36631 19998 ft 150 kts 279°
2026-04-26 21:00 17.43924 -63.37690 20000 ft 150 kts 279°
2026-04-26 21:01 17.44164 -63.38750 19997 ft 150 kts 279°
2026-04-26 21:01 17.44404 -63.39809 19996 ft 150 kts 279°
2026-04-26 21:01 17.44644 -63.40869 19996 ft 150 kts 279°
2026-04-26 21:01 17.44884 -63.41927 19997 ft 150 kts 279°
2026-04-26 21:02 17.45124 -63.42989 19995 ft 150 kts 279°
2026-04-26 21:02 17.45364 -63.44048 19997 ft 150 kts 279°
2026-04-26 21:02 17.45605 -63.45111 19997 ft 150 kts 279°
2026-04-26 21:02 17.45845 -63.46172 19998 ft 150 kts 279°
2026-04-26 21:03 17.46085 -63.47234 19993 ft 150 kts 279°
2026-04-26 21:03 17.46325 -63.48295 19995 ft 150 kts 279°
2026-04-26 21:03 17.46565 -63.49354 19995 ft 150 kts 279°
2026-04-26 21:03 17.46804 -63.50415 19994 ft 150 kts 279°
2026-04-26 21:04 17.47045 -63.51478 19992 ft 150 kts 278°
2026-04-26 21:04 17.47284 -63.52538 19991 ft 150 kts 278°
2026-04-26 21:04 17.47523 -63.53597 19990 ft 149 kts 278°
2026-04-26 21:04 17.47762 -63.54656 19990 ft 149 kts 278°
2026-04-26 21:05 17.48002 -63.55715 19992 ft 149 kts 278°
2026-04-26 21:05 17.48240 -63.56772 19992 ft 149 kts 278°
2026-04-26 21:05 17.48479 -63.57833 19990 ft 149 kts 279°
2026-04-26 21:05 17.48718 -63.58893 19990 ft 149 kts 278°
2026-04-26 21:06 17.48958 -63.59952 19991 ft 149 kts 279°
2026-04-26 21:06 17.49193 -63.60997 19992 ft 149 kts 278°
2026-04-26 21:06 17.49432 -63.62057 19991 ft 149 kts 278°
2026-04-26 21:06 17.49671 -63.63117 19991 ft 149 kts 278°
2026-04-26 21:07 17.49909 -63.64177 19990 ft 149 kts 278°
2026-04-26 21:07 17.50148 -63.65235 19991 ft 150 kts 278°
2026-04-26 21:07 17.50386 -63.66296 19990 ft 149 kts 278°
2026-04-26 21:07 17.50625 -63.67355 19989 ft 149 kts 278°
2026-04-26 21:08 17.50863 -63.68414 19987 ft 149 kts 278°
2026-04-26 21:08 17.51101 -63.69474 19987 ft 149 kts 279°
2026-04-26 21:08 17.51340 -63.70532 19989 ft 149 kts 279°
2026-04-26 21:08 17.51578 -63.71590 19990 ft 149 kts 278°
2026-04-26 21:09 17.51816 -63.72650 19989 ft 149 kts 278°
2026-04-26 21:09 17.52054 -63.73707 19990 ft 149 kts 278°
2026-04-26 21:09 17.52291 -63.74766 19988 ft 149 kts 278°
2026-04-26 21:09 17.52530 -63.75825 19989 ft 149 kts 278°
2026-04-26 21:10 17.52767 -63.76883 19987 ft 149 kts 278°
2026-04-26 21:10 17.53005 -63.77942 19988 ft 149 kts 278°
2026-04-26 21:10 17.53243 -63.79002 19989 ft 149 kts 278°
2026-04-26 21:10 17.53400 -63.79704 19990 ft 149 kts 278°
2026-04-26 21:11 17.53639 -63.80765 19990 ft 149 kts 278°
2026-04-26 21:11 17.53876 -63.81823 19989 ft 149 kts 278°
2026-04-26 21:11 17.54113 -63.82882 19990 ft 149 kts 278°
2026-04-26 21:11 17.54351 -63.83941 19988 ft 149 kts 278°
2026-04-26 21:12 17.54588 -63.84999 19985 ft 149 kts 278°
2026-04-26 21:12 17.54825 -63.86058 19988 ft 149 kts 279°
2026-04-26 21:12 17.55062 -63.87115 19988 ft 149 kts 279°
2026-04-26 21:12 17.55299 -63.88174 19987 ft 149 kts 278°
2026-04-26 21:13 17.55536 -63.89233 19988 ft 149 kts 278°
2026-04-26 21:13 17.55773 -63.90291 19987 ft 149 kts 278°
2026-04-26 21:13 17.56010 -63.91349 19984 ft 149 kts 278°
2026-04-26 21:13 17.56247 -63.92408 19986 ft 149 kts 278°
2026-04-26 21:14 17.56483 -63.93466 19985 ft 149 kts 278°
2026-04-26 21:14 17.56720 -63.94523 19986 ft 149 kts 278°
2026-04-26 21:14 17.56956 -63.95580 19988 ft 149 kts 278°
2026-04-26 21:14 17.57192 -63.96637 19984 ft 149 kts 278°
2026-04-26 21:15 17.57428 -63.97690 19983 ft 149 kts 278°
2026-04-26 21:15 17.57663 -63.98745 19984 ft 149 kts 278°
2026-04-26 21:15 17.57898 -63.99799 19986 ft 149 kts 278°
2026-04-26 21:15 17.58134 -64.00854 19984 ft 149 kts 278°
2026-04-26 21:16 17.58369 -64.01907 19986 ft 149 kts 278°
2026-04-26 21:16 17.58604 -64.02962 19986 ft 149 kts 278°
2026-04-26 21:16 17.58837 -64.04002 19988 ft 149 kts 278°
2026-04-26 21:16 17.59071 -64.05055 19986 ft 149 kts 278°
2026-04-26 21:17 17.59307 -64.06112 19988 ft 149 kts 278°
2026-04-26 21:17 17.59543 -64.07169 19990 ft 149 kts 278°
2026-04-26 21:17 17.59778 -64.08226 19991 ft 149 kts 278°
2026-04-26 21:17 17.60013 -64.09282 19991 ft 149 kts 278°
2026-04-26 21:18 17.60249 -64.10339 19987 ft 149 kts 278°
2026-04-26 21:18 17.60485 -64.11396 19987 ft 149 kts 278°
2026-04-26 21:18 17.60719 -64.12452 19989 ft 149 kts 278°
2026-04-26 21:18 17.60954 -64.13508 19988 ft 149 kts 278°
2026-04-26 21:19 17.61189 -64.14562 19989 ft 149 kts 278°
2026-04-26 21:19 17.61424 -64.15618 19991 ft 149 kts 278°
2026-04-26 21:19 17.61659 -64.16674 19989 ft 149 kts 278°
2026-04-26 21:19 17.61893 -64.17729 19990 ft 149 kts 278°
2026-04-26 21:20 17.62128 -64.18785 19993 ft 149 kts 278°
2026-04-26 21:20 17.62362 -64.19839 19992 ft 149 kts 278°
2026-04-26 21:20 17.62597 -64.20893 19993 ft 149 kts 278°
2026-04-26 21:20 17.62831 -64.21950 19994 ft 149 kts 278°
2026-04-26 21:21 17.63065 -64.23004 19994 ft 149 kts 278°
2026-04-26 21:21 17.63299 -64.24060 19993 ft 149 kts 278°
2026-04-26 21:21 17.63533 -64.25114 19993 ft 149 kts 278°
2026-04-26 21:21 17.63767 -64.26169 19997 ft 149 kts 278°
2026-04-26 21:22 17.64002 -64.27225 19995 ft 149 kts 278°
2026-04-26 21:22 17.64236 -64.28280 19995 ft 149 kts 278°
2026-04-26 21:22 17.64469 -64.29336 19996 ft 149 kts 278°
2026-04-26 21:23 17.64937 -64.31446 19997 ft 149 kts 278°
2026-04-26 21:23 17.65171 -64.32501 19997 ft 149 kts 278°
2026-04-26 21:23 17.65404 -64.33557 19996 ft 149 kts 278°
2026-04-26 21:23 17.65638 -64.34614 19996 ft 149 kts 278°
2026-04-26 21:24 17.65873 -64.35670 19999 ft 149 kts 278°
2026-04-26 21:24 17.66106 -64.36726 19999 ft 149 kts 278°
2026-04-26 21:24 17.66339 -64.37782 20000 ft 149 kts 278°
2026-04-26 21:24 17.66573 -64.38837 19999 ft 149 kts 278°
2026-04-26 21:25 17.66806 -64.39892 19998 ft 149 kts 278°
2026-04-26 21:25 17.67039 -64.40948 19999 ft 149 kts 278°
2026-04-26 21:25 17.67273 -64.42003 20000 ft 149 kts 278°
2026-04-26 21:25 17.67506 -64.43059 19999 ft 149 kts 278°
2026-04-26 21:26 17.67739 -64.44113 19999 ft 149 kts 278°
2026-04-26 21:26 17.67972 -64.45168 19999 ft 148 kts 278°
2026-04-26 21:26 17.68205 -64.46224 20002 ft 149 kts 278°
2026-04-26 21:26 17.68438 -64.47278 20002 ft 149 kts 278°
2026-04-26 21:27 17.68671 -64.48333 20001 ft 149 kts 278°
2026-04-26 21:27 17.68904 -64.49387 20001 ft 149 kts 278°
2026-04-26 21:27 17.69133 -64.50430 20001 ft 149 kts 278°
2026-04-26 21:27 17.69367 -64.51485 20004 ft 149 kts 278°
2026-04-26 21:28 17.69599 -64.52540 20001 ft 149 kts 278°
2026-04-26 21:28 17.69831 -64.53595 20003 ft 149 kts 278°
2026-04-26 21:28 17.70064 -64.54650 20002 ft 148 kts 278°
2026-04-26 21:28 17.70297 -64.55705 20002 ft 148 kts 278°
2026-04-26 21:29 17.70529 -64.56759 20004 ft 148 kts 278°
2026-04-26 21:29 17.70761 -64.57814 20005 ft 148 kts 278°
2026-04-26 21:29 17.70993 -64.58870 20005 ft 148 kts 278°
2026-04-26 21:29 17.71226 -64.59923 20005 ft 148 kts 278°
2026-04-26 21:30 17.71458 -64.60979 20005 ft 148 kts 278°
2026-04-26 21:30 17.71690 -64.62034 20006 ft 148 kts 278°
2026-04-26 21:30 17.71922 -64.63088 20006 ft 148 kts 278°
2026-04-26 21:30 17.72153 -64.64143 20009 ft 148 kts 278°
2026-04-26 21:31 17.72386 -64.65200 20006 ft 149 kts 278°
2026-04-26 21:31 17.72618 -64.66256 20008 ft 149 kts 278°
2026-04-26 21:31 17.72850 -64.67313 20009 ft 149 kts 278°
2026-04-26 21:31 17.73085 -64.68368 20006 ft 148 kts 278°
2026-04-26 21:32 17.73313 -64.69425 20011 ft 149 kts 278°
2026-04-26 21:32 17.73711 -64.70441 20012 ft 154 kts 296°
2026-04-26 21:32 17.74351 -64.71357 20010 ft 156 kts 299°
2026-04-26 21:32 17.74986 -64.72279 20010 ft 156 kts 299°
2026-04-26 21:33 17.75623 -64.73203 20009 ft 156 kts 299°
2026-04-26 21:33 17.76261 -64.74124 20007 ft 154 kts 299°
2026-04-26 21:33 17.76850 -64.74957 19989 ft 137 kts 297°
2026-04-26 21:33 17.77399 -64.75771 19991 ft 137 kts 298°
2026-04-26 21:34 17.77957 -64.76582 19991 ft 137 kts 298°
2026-04-26 21:34 17.78518 -64.77392 19993 ft 137 kts 298°
2026-04-26 21:34 17.79078 -64.78201 19992 ft 137 kts 298°
2026-04-26 21:34 17.79637 -64.79010 19993 ft 137 kts 298°
2026-04-26 21:35 17.80195 -64.79818 19993 ft 137 kts 298°
2026-04-26 21:35 17.80753 -64.80625 19992 ft 137 kts 298°
2026-04-26 21:35 17.81313 -64.81435 19992 ft 138 kts 298°
2026-04-26 21:35 17.81881 -64.82262 20002 ft 142 kts 298°
2026-04-26 21:36 17.82469 -64.83111 20007 ft 146 kts 298°
2026-04-26 21:36 17.82874 -64.83696 20006 ft 147 kts 298°
2026-04-26 21:36 17.83677 -64.84857 20009 ft 150 kts 298°
2026-04-26 21:36 17.84290 -64.85744 20009 ft 150 kts 298°
2026-04-26 21:37 17.84906 -64.86635 20007 ft 151 kts 298°
2026-04-26 21:37 17.85525 -64.87531 20006 ft 152 kts 298°
2026-04-26 21:37 17.86145 -64.88429 20003 ft 152 kts 298°
2026-04-26 21:37 17.86766 -64.89328 20001 ft 152 kts 298°
2026-04-26 21:38 17.87387 -64.90228 20004 ft 152 kts 298°
2026-04-26 21:38 17.88009 -64.91129 20002 ft 152 kts 298°
2026-04-26 21:38 17.88630 -64.92029 20000 ft 152 kts 298°
2026-04-26 21:38 17.89251 -64.92929 20000 ft 152 kts 298°
2026-04-26 21:39 17.89872 -64.93830 20000 ft 152 kts 298°
2026-04-26 21:39 17.90493 -64.94730 19998 ft 152 kts 298°
2026-04-26 21:39 17.91114 -64.95631 19998 ft 152 kts 298°
2026-04-26 21:39 17.91736 -64.96532 19997 ft 152 kts 298°
2026-04-26 21:40 17.92357 -64.97433 19997 ft 152 kts 298°
2026-04-26 21:40 17.92978 -64.98335 19996 ft 152 kts 298°
2026-04-26 21:40 17.93599 -64.99235 19994 ft 152 kts 298°
2026-04-26 21:40 17.94220 -65.00136 19996 ft 152 kts 298°
2026-04-26 21:41 17.94841 -65.01037 19994 ft 152 kts 298°
2026-04-26 21:41 17.95461 -65.01937 19993 ft 152 kts 298°
2026-04-26 21:41 17.96082 -65.02839 19992 ft 152 kts 298°
2026-04-26 21:41 17.96691 -65.03711 19806 ft 147 kts 299°
2026-04-26 21:42 17.97301 -65.04597 19413 ft 150 kts 299°
2026-04-26 21:42 17.97907 -65.05476 19032 ft 148 kts 299°
2026-04-26 21:42 17.98510 -65.06353 18638 ft 147 kts 299°
2026-04-26 21:42 17.99107 -65.07223 18249 ft 146 kts 300°
2026-04-26 21:43 17.99701 -65.08087 17803 ft 146 kts 300°
2026-04-26 21:43 18.00293 -65.08947 17369 ft 145 kts 300°
2026-04-26 21:43 18.00882 -65.09804 16934 ft 144 kts 300°
2026-04-26 21:43 18.01469 -65.10658 16510 ft 144 kts 300°
2026-04-26 21:44 18.02056 -65.11511 16091 ft 144 kts 300°
2026-04-26 21:44 18.02641 -65.12361 15686 ft 143 kts 301°
2026-04-26 21:44 18.03223 -65.13207 15290 ft 143 kts 301°
2026-04-26 21:44 18.03803 -65.14051 14894 ft 142 kts 301°
2026-04-26 21:45 18.04380 -65.14891 14503 ft 142 kts 301°
2026-04-26 21:45 18.04957 -65.15730 14123 ft 141 kts 301°
2026-04-26 21:45 18.05533 -65.16568 13745 ft 141 kts 301°
2026-04-26 21:45 18.06107 -65.17403 13334 ft 141 kts 302°
2026-04-26 21:46 18.06680 -65.18236 12922 ft 140 kts 302°
2026-04-26 21:46 18.07250 -65.19067 12518 ft 140 kts 302°
2026-04-26 21:46 18.07821 -65.19900 12147 ft 143 kts 302°
2026-04-26 21:46 18.08394 -65.20741 11986 ft 140 kts 302°
2026-04-26 21:47 18.08965 -65.21571 11793 ft 140 kts 302°
2026-04-26 21:47 18.09537 -65.22401 11601 ft 140 kts 303°
2026-04-26 21:47 18.10106 -65.23229 11414 ft 140 kts 303°
2026-04-26 21:47 18.10663 -65.24039 11215 ft 135 kts 303°
2026-04-26 21:48 18.11221 -65.24853 10766 ft 139 kts 303°
2026-04-26 21:48 18.11786 -65.25676 10359 ft 138 kts 304°
2026-04-26 21:48 18.12350 -65.26495 9955 ft 138 kts 303°